Meteo Giornale » Osservazioni meteo Gran Bretagna » Leeds And Bradford

ore: 14:50 - Osservazioni Meteo Leeds And Bradford
Lat. 53° 52' N Lon. 1° 39' W Alt. 208 metri s.l.m.

coperto_pioggia Europe/London

12 °C

Pioggia Debole

Temp. 24 Ore

7 °C

14 °C

Sud

18.5 Km/h

Dew point 10 °C

Umidità 87 %

Visibilità  10 Km

Il sole sorge alle ore 07:01

Il sole tramonta alle ore 18:52

Data e Ora Cielo e Fenomeni T °C DP °C Um. % Pres. hPa Vis. km Vento km/h
Oggi h: 14:50 coperto_pioggia Pioggia Debole 12 10 87 1010 10 S 18.5
Oggi h: 14:20 nuvoloso_piovaschi Debole Rovescio di Pioggia 13 10 81 1010 10 S 22.2
Oggi h: 13:50 nuvoloso_piovaschi Debole Rovescio di Pioggia 13 10 81 1010 10 S 27.8
Oggi h: 13:20 nuvoloso_piovaschi Debole Rovescio di Pioggia 13 9 76 1010 10 S 25.9
Oggi h: 12:50 nuvoloso_piovaschi Debole Rovescio di Pioggia 14 9 71 1011 10 S 25.9
Oggi h: 12:20 nuvoloso Nuvoloso 14 9 71 1011 10 S 24
Oggi h: 11:50 nuvoloso Nuvoloso 13 9 76 1012 10 S 18.5
Oggi h: 11:20 nuvoloso_piovaschi Debole Rovescio di Pioggia 13 9 76 1012 10 S 18.5
Oggi h: 10:50 nuvoloso_piovaschi Debole Rovescio di Pioggia 12 9 81 1012 10 S/SE 22.2
Oggi h: 10:20 nuvoloso_piovaschi Debole Rovescio di Pioggia 12 9 81 1013 10 S 16.7
Oggi h: 09:50 poco_nuvoloso Poco Nuvoloso 11 9 87 1013 10 S 20.3
Oggi h: 09:20 poco_nuvoloso Poco Nuvoloso 10 9 93 1013 10 S 14.8
Oggi h: 08:50 poco_nuvoloso Poco Nuvoloso 10 8 87 1013 10 S 14.8
Oggi h: 08:20 poco_nuvoloso Poco Nuvoloso 10 8 87 1013 10 S 14.8
Oggi h: 07:50 poco_nuvoloso Poco Nuvoloso 9 7 87 1013 10 S 9.3
Oggi h: 07:20 poco_nuvoloso Poco Nuvoloso 9 7 87 1013 10 S 11.1
Oggi h: 06:50 sereno Sereno 7 7 100 1013 10 E 7.4
Oggi h: 06:20 sereno Sereno 8 7 93 1013 10 S/SE 11.1
Oggi h: 05:50 sereno Sereno 9 7 87 1013 10 S 9.3
Oggi h: 00:50 sereno Sereno 9 7 87 1013 10 S 7.4
Oggi h: 00:20 sereno Sereno 10 7 81 1013 10 S 16.7
Ieri h: 23:50 sereno Sereno 10 7 81 1013 10 S/SO 20.3
Ieri h: 23:20 sereno Sereno 10 7 81 1012 10 S/SO 18.5
Ieri h: 22:50 sereno Sereno 10 7 81 1012 10 S 11.1
Ieri h: 22:20 sereno Sereno 9 6 81 1012 10 S 9.3
Ieri h: 21:50 sereno Sereno 9 6 81 1012 10 N 3.7
Ieri h: 21:20 sereno Sereno 10 6 76 1012 10 S 9.3
Ieri h: 20:50 sereno Sereno 11 6 71 1012 10 S 7.4
Ieri h: 20:20 sereno Sereno 11 6 71 1011 10 N 5.5
Ieri h: 19:50 poco_nuvoloso Poco Nuvoloso 12 6 66 1011 10 S/SO 13
Ieri h: 19:20 poco_nuvoloso Poco Nuvoloso 12 6 66 1010 10 SO 16.7
Ieri h: 18:50 nuvoloso_piovaschi Debole Rovescio di Pioggia 12 7 71 1010 10 SO 16.7
Ieri h: 18:20 poco_nuvoloso Poco Nuvoloso 13 6 62 1009 10 SO 13
Ieri h: 17:50 poco_nuvoloso Poco Nuvoloso 14 5 54 1009 10 O/SO 22.2
Ieri h: 17:20 poco_nuvoloso Poco Nuvoloso 14 5 54 1008 10 SO 27.8
Ieri h: 16:50 poco_nuvoloso Poco Nuvoloso 14 6 58 1007 10 O/SO 25.9
Ieri h: 16:20 poco_nuvoloso Poco Nuvoloso 14 6 58 1007 10 O/SO 37
Ieri h: 15:50 poco_nuvoloso Poco Nuvoloso 14 7 62 1007 10 O/SO 25.9